Regional Weather Roundup
Issued by NWS

Home | Current Version | Previous Version | Text Only | Print | Product List | Glossary On
Versions: 1 2 3 4 5 6 7 8 9 10 11 12 13 14 15 16 17 18 19 20 21 22 23 24 25 26 27 28 29 30 31 32 33 34 35 36 37 38 39 40 41 42 43 44 45 46 47 48 49 50
000
ASUS43 KDTX 210101
RWRMI
MICHIGAN HOURLY REGIONAL WEATHER ROUNDUP
NATIONAL WEATHER SERVICE DETROIT/PONTIAC MI
800 PM EST MON FEB 20 2017

NOTE: "FAIR" INDICATES FEW OR NO CLOUDS BELOW 12,000 FEET WITH NO
SIGNIFICANT WEATHER AND/OR OBSTRUCTION TO VISIBILITY.

MIZ047>049-052>055-059>063-066>070-074>076-081>083-210200-
SOUTHEAST LOWER MICHIGAN

CITY           SKY/WX    TMP DP  RH WIND       PRES   REMARKS
ADRIAN         CLOUDY    37  31  78 SE12      30.17F WCI  29
ALMA           CLOUDY    47  32  56 E9        30.12F
ANN ARBOR      CLOUDY    42  32  67 E9        30.17F
BAD AXE        CLOUDY    38  32  79 SE7       30.19F WCI  33
CARO           PTCLDY    44  33  65 SE10G17   30.16F
DETROIT CITY   CLOUDY    39  30  70 E10       30.21F WCI  32
DETROIT        CLOUDY    41  30  65 E8        30.20F
FLINT          CLOUDY    43  31  62 SE14      30.16S
GROSSE ILE     CLOUDY    38  30  73 E7        30.19F WCI  32
HILLSDALE      CLOUDY    39  30  70 E14G22    30.13S WCI  31
HOWELL         PTCLDY    43  32  64 SE13G20   30.15F

CITY           SKY/WX    TMP DP  RH WIND       PRES   REMARKS
JACKSON        CLOUDY    45  31  58 SE16G24   30.13F
LAMBERTVILLE   CLOUDY    37  32  82 E8        30.18F WCI  31
LANSING        PTCLDY    49  32  52 SE13      30.13F
LAPEER         FAIR      41  32  69 SE12G18   30.18F
MASON          PTCLDY    47  36  63 SE9       30.13F
MONROE         CLOUDY    37  31  80 E10G17    30.19F WCI  29
MT. CLEMENS    CLOUDY    38  32  78 SE9       30.20F WCI  32
PONTIAC        CLOUDY    40  30  67 SE13      30.17F WCI  32
PORT HOPE        N/A     37  32  82 SE12      30.18F WCI  29
PORT HURON     CLOUDY    41  32  70 SE10      30.21F
TRI CITIES     CLOUDY    45  33  63 SE12      30.15S
MIDLAND        FAIR      42  32  67 E5        30.14F
TROY           CLOUDY    41  29  62 E5        30.22S
SAGINAW HB     CLOUDY    45  32  61 SE12      30.14F
$$
MIZ043>046-050>051-056>058-064>065-071>073-077>080-210200-
SOUTHWEST LOWER MICHIGAN

CITY           SKY/WX    TMP DP  RH WIND       PRES   REMARKS
BATTLE CREEK   CLOUDY    50  34  54 SE9       30.11S
BENTON HARBOR  CLOUDY    57  41  55 SE13      30.02F
BIG RAPIDS     PTCLDY    45  35  67 SE9       30.06F
COLDWATER      CLOUDY    46  32  56 SE10G21   30.12S
FREMONT        FAIR      52  33  47 SE13      30.03F
HOLLAND        CLOUDY    55  38  52 SE15      30.03F
GRAND RAPIDS   CLOUDY    51  34  52 SE14      30.06F
IONIA          FAIR      46  33  61 SE9       30.09F
KALAMAZOO      CLOUDY    52  35  52 SE13      30.09F
LUDINGTON      CLOUDY    53  37  55 SE10G20   29.99F
MARSHALL       CLOUDY    46  33  59 E6        30.11S
MOUNT PLEASANT CLOUDY    42  33  72 E5        30.11S
MUSKEGON       CLOUDY    56  36  47 SE20      30.02F
SOUTH HAVEN    PTCLDY    56  38  50 SE10G16   30.02F
$$
MIZ016>042-210200-
NORTHERN LOWER MICHIGAN

CITY           SKY/WX    TMP DP  RH WIND       PRES   REMARKS
ALPENA         CLOUDY    34  29  82 SE12      30.18F WCI  25
BEAVER ISLAND  CLOUDY    39  32  75 E14G21    30.01F WCI  31
BELLAIRE       CLOUDY    44  33  64 SE7       30.04F
CADILLAC       CLOUDY    41  33  71 SE13      30.05F
CHARLEVOIX     CLOUDY    45  32  60 SE15G21   30.05F
FRANKFORT      CLOUDY    51  36  56 SE18G29   29.97F
GAYLORD        CLOUDY    40  29  64 SE13      30.08F WCI  32
GRAYLING       CLOUDY    38  33  80 SE12      30.11F WCI  31
HARBOR SPRINGS CLOUDY    40  31  69 E13       30.06F WCI  32
HOUGHTON LAKE  CLOUDY    39  32  76 SE12      30.12S WCI  32
MANISTEE       CLOUDY    50  35  56 SE13G18   29.99F
OSCODA         CLOUDY    37  31  78 SE9G16    30.18F WCI  31
PELLSTON       CLOUDY    38  28  67 SE15G22   30.08F WCI  29
ROGERS CITY    CLOUDY    35  28  75 SE9       30.16F WCI  27
TRAVERSE CITY  CLOUDY    47  33  58 SE9       30.02F
$$
MIZ007>008-015-210200-
EASTERN UPPER MICHIGAN

CITY           SKY/WX    TMP DP  RH WIND       PRES   REMARKS
KINROSS        CLOUDY    32  24  72 SE22      30.09F WCI  19
MACKINAC ISLAN CLOUDY    33  28  80 E16G28    30.08F WCI  23
NEWBERRY       CLOUDY    34  29  82 SE17G25   30.03S WCI  23
S. S. MARIE    MOCLDY    33  18  53 SE16G24   30.12F WCI  23
MUNISING         N/A     41  30  65 S14G23    29.91S
$$
MIZ004>006-011>014-085-210200-
CENTRAL UPPER MICHIGAN

CITY           SKY/WX    TMP DP  RH WIND       PRES   REMARKS
MANISTIQUE     CLOUDY    34  32  92 E18G24    30.00R WCI  23
ESCANABA       CLOUDY    39  34  82 E12       29.94F WCI  32
MENOMINEE      RAIN      46  37  71 S12G17    29.91F
SAWYER-GWINN   CLOUDY    41  32  70 S24G36    29.87F
$$
MIZ001>003-009>011-084-210200-
WESTERN UPPER MICHIGAN

CITY           SKY/WX    TMP DP  RH WIND       PRES   REMARKS
IRON MOUNTAIN  LGT RAIN  40  34  79 SE12      29.83F WCI  33
HOUGHTON       LGT RAIN  37  34  89 E10       29.74F WCI  30
IRONWOOD       LGT RAIN  48  46  93 S14G24    29.67S
$$

ABBREVIATIONS USED IN REMARKS
   TC - TEMPERATURE IN CELSIUS
  WCI - WIND CHILL INDEX
   HX - HEAT INDEX
  VSB - VISIBILITY





USA.gov is the U.S. government's official web portal to all federal, state and local government web resources and services.